Regional Weather Roundup
Issued by NWS Boston, MA

Home | Current Version | Previous Version | Text Only | Print | Product List | Glossary On
Versions: 1 2 3 4 5 6 7 8 9 10 11 12 13 14 15 16 17 18 19 20 21 22 23 24 25 26 27 28 29 30 31 32 33 34 35 36 37 38 39 40 41 42 43 44 45 46 47 48 49 50
000
ASUS41 KBOX 290210
RWRBOX

REGIONAL WEATHER ROUNDUP
NATIONAL WEATHER SERVICE TAUNTON MA
1000 PM EDT THU JUL 28 2016

NOTE:  "FAIR" INDICATES FEW OR NO CLOUDS BELOW 12,000 FEET WITH NO
SIGNIFICANT WEATHER AND/OR OBSTRUCTIONS TO VISIBILITY.

MAZALL-290300-
EASTERN MASSACHUSETTS

CITY           SKY/WX    TMP DP  RH WIND       PRES   REMARKS
BOSTON         CLOUDY    79  70  74 S7        29.86R
BEVERLY        PTCLDY    78  67  68 CALM      29.85S
LAWRENCE       MOCLDY    81  67  62 CALM      29.87S
BEDFORD        CLOUDY    81  63  54 S7        29.85S
BLUE HILL        N/A     76  70  82 S9        29.89S
NORWOOD        CLOUDY    79  71  76 S6        29.86S
MARSHFIELD     CLOUDY    79  72  78 S7        29.87S
PLYMOUTH       CLOUDY    75  72  90 S5        29.90R
TAUNTON        CLOUDY    76  72  87 S3        29.88R
NEW BEDFORD    CLOUDY    76  72  87 SW3       29.88S
$$

MAZALL-290300-
CAPE COD AND THE ISLANDS

CITY           SKY/WX    TMP DP  RH WIND       PRES   REMARKS
FALMOUTH       CLOUDY    72  70  94 SW12      29.90
HYANNIS        MOCLDY    75  73  93 S8        29.89S
CHATHAM        CLOUDY    73  71  93 VRB3      29.91S
PROVINCETOWN   PTCLDY    74  73  97 S10       29.89S
NANTUCKET      PTCLDY    71  70  96 S8        29.91R
MARTHAS VNYRD  CLOUDY    75  74  96 S6        29.89F FOG
$$

MAZALL-290300-
CENTRAL AND WESTERN MASSACHUSETTS

CITY           SKY/WX    TMP DP  RH WIND       PRES   REMARKS
WORCESTER      CLOUDY    72  65  78 SW7       29.91S
FITCHBURG      CLOUDY    81  63  54 CALM      29.89R
ORANGE         CLOUDY    79  64  60 CALM      29.90R
SPRINGFIELD    NOT AVBL
WESTFIELD      MOCLDY    81  63  54 SE5       29.86R
NORTH ADAMS    CLOUDY    67  63  87 CALM      29.90R
PITTSFIELD     CLOUDY    73  61  65 SW8       29.91R
$$

RIZALL-290300-
RHODE ISLAND

CITY           SKY/WX    TMP DP  RH WIND       PRES   REMARKS
PROVIDENCE     CLOUDY    77  72  84 S6        29.89R
NEWPORT        CLOUDY    76  74  93 S5        29.89S FOG
BLOCK ISLAND   CLOUDY    76  74  93 SW7       29.90R
SMITHFIELD     MOCLDY    75  66  73 CALM      29.90S
WESTERLY       FOG       74  71  91 S3        29.89S VSB 1/2
$$

CTZALL-290300-
CONNECTICUT

CITY           SKY/WX    TMP DP  RH WIND       PRES   REMARKS
BRADLEY INTL   CLOUDY    82  68  62 S8        29.86S
HARTFORD       MOCLDY    83  70  64 S7        29.86R
BRIDGEPORT     MOCLDY    80  73  79 SW3       29.87R
DANBURY        CLOUDY    77  68  73 W3        29.90R
GROTON         CLOUDY    77  73  87 S3        29.87S
NEW HAVEN      CLOUDY    79  72  79 SW5       29.87S
CHESTER        FAIR      77  73  88 CALM      29.89S
MERIDEN        CLOUDY    79  70  74 S5        29.87S
WILLIMANTIC    CLOUDY    80  73  79 S3        29.89R
OXFORD           N/A     75  66  73 CALM      29.93R
$$

MEZ002-015-021-024-NHZ003-005-008-011-012-014-VTZ005-008-290300-
NORTHERN NEW ENGLAND

CITY           SKY/WX    TMP DP  RH WIND       PRES   REMARKS
PORTLAND ME    CLOUDY    75  65  70 E5        29.87S
BANGOR ME      MOCLDY    75  69  81 CALM      29.88F
CONCORD NH     CLOUDY    80  64  58 CALM      29.88R
MANCHESTER NH  CLOUDY    81  68  64 N3        29.85S
NASHUA NH      CLOUDY    80  66  62 CALM      29.87R
PORTSMOUTH NH  NOT AVBL
JAFFREY NH     CLOUDY    73  64  73 CALM      29.92R
KEENE NH       CLOUDY    73  65  75 CALM      29.89R
BURLINGTON VT  CLOUDY    71  67  87 CALM      29.90S
MT. WASHINGTON MOCLDY    52  50  93 W24         N/A
$$

NYZ052-076-290300-
EASTERN NEW YORK

CITY           SKY/WX    TMP DP  RH WIND       PRES   REMARKS
ALBANY         CLOUDY    76  65  68 NE7       29.87R
NEW YORK CITY  CLOUDY    82  66  58 W6        29.86S
$$

ANZALL-290300-
MARINE OBSERVATIONS

STATION/POSITION TIME  TEMP    WIND        PRES    VSBY  WAVE
                       AIR SEA DIR/SP/G                  HT/PER
                 (UTC) (F)     (DEG/KT/KT) (MB)    (MI)  (FT/S)
BOSTON BUOY      0150   73 71  160/  8/  8 1011.1R         1/ 9
BUZZARDS BAY     0100   74     200/  9/  9 1012.5R
NANTUCKET SOUND  0150   75 75  190/ 10/ 10 1012.0R         1
MASS BAY-STELLWA 0104   73 69  190/  6/  6 1011.0F  1 7/8  3/ 4
ISLE OF SHOALS   0100   78     300/  6/  7 1010.6R
S OF BLOCK IS    0125      75                N/A           1/ 6
$$

......................KEY.........................
  SKY/WX - SKY CONDITION/PRESENT WEATHER
  TMP    - TEMPERATURE IN FAHRENHEIT
  DWPT   - DEWPOINT IN FAHRENHEIT
  RH     - RELATIVE HUMIDITY IN PERCENT
  WIND   - DIRECTION AND SPEED IN MPH
  PRES   - MEAN SEA LEVEL PRESSURE IN INCHES OF HG
  WCI    - WIND CHILL INDEX
  VSB    - VISIBILITY IN MILES
  HX     - HEAT INDEX
  TC     - TEMPERATURE IN CELSIUS
  VRB    - VARIABLE WIND DIRECTION
  N/A    - NOT AVAILABLE



USA.gov is the U.S. government's official web portal to all federal, state and local government web resources and services.